#timestamp,LO_Frequency,Hit,StdDev 
1552298415.6,286047004.3,N
1552298435.4,286047002.6,N
1552298455.2,286047002.5,N
1552298475.1,286047000.2,N
1552298476.0,286047000.2,N
1552298495.8,286047001.6,N
1552298515.6,286047001.4,N
1552298535.5,286047002.7,N
1552298555.3,286047002.4,N
1552298575.2,286047000.2,N
1552298595.9,286047000.5,N
1552298615.7,286047002.8,N
1552298635.6,286047004.1,Y
1552298655.4,286047002.2,P
1552298675.3,286047003.4,P
1552298695.1,286047002.9,P
1552298696.0,286047002.9,Y
1552298715.8,286046999.7,P
1552298735.7,286047000.3,N
1552298755.5,286047002.5,N
1552298775.3,286047003.3,N
1552298795.2,286047005.4,Y
1552298815.0,286047005.4,P
1552298815.9,286047005.4,N
1552298835.8,286047008.0,P
1552298855.6,286047010.7,Y
1552298875.4,286047004.8,P
1552298895.3,286047004.8,P
1552298915.1,286047003.9,P
1552298935.9,286046999.7,N
1552298955.5,286047000.0,N
1552298975.3,286047000.4,N
1552298995.2,286046998.7,N
1552299015.0,286046997.2,N
1552299015.9,286046997.2,N
1552299035.8,286046995.6,N
1552299055.6,286046996.1,N
1552299075.4,286046993.8,N
1552299095.3,286046996.0,N
1552299115.1,286046994.6,N
1552299135.8,286046991.7,N
1552299155.7,286046994.6,N
1552299175.5,286046992.2,N
1552299195.4,286046991.8,N
1552299215.2,286046992.8,N
1552299235.0,286046988.9,N
1552299235.9,286046988.9,N
1552299255.8,286046988.5,N
1552299275.6,286046990.0,N
1552299295.4,286046989.9,N
1552299315.3,286046986.9,N
1552299335.1,286046985.5,N
1552299355.9,286046986.9,N
1552299375.7,286046988.5,N
1552299395.5,286046989.8,N
1552299415.4,286046987.4,N
1552299435.2,286046989.7,N
1552299455.0,286046988.7,N
1552299456.0,286046988.7,N
1552299475.8,286046987.8,N
1552299495.6,286046985.9,Y
1552299515.5,286046993.4,P
1552299535.3,286046996.4,P
1552299555.1,286046995.2,N
1552299575.9,286046997.2,N
1552299595.7,286046999.1,N
1552299615.6,286046999.3,N
1552299635.4,286046998.5,N
1552299655.2,286046998.6,N
1552299675.1,286046998.5,N
1552299676.0,286046998.5,N
1552299695.8,286046998.3,N
1552299715.6,286047001.0,N
1552299735.5,286047000.1,N
1552299755.3,286047011.9,Y
1552299775.1,286047001.7,P
1552299795.9,286047000.4,N
1552299815.7,286047001.9,N
1552299835.6,286047001.6,N
1552299855.4,286047001.0,N
1552299875.2,286046998.5,N
1552299895.1,286047001.1,N
1552299896.0,286047001.1,N
1552299915.8,286047000.9,N
1552299935.7,286046998.2,N
1552299955.5,286047001.1,N
1552299975.3,286047000.8,N
1552299995.2,286047002.4,N
1552300015.9,286047002.8,N
1552300035.7,286047001.5,N
1552300055.6,286047001.9,N
1552300075.4,286047002.6,N
1552300095.2,286047002.3,N
1552300115.1,286047002.2,N
1552300116.0,286047002.2,N
1552300135.8,286047000.3,N
1552300155.7,286047000.8,N
1552300175.5,286047002.6,N
1552300195.3,286047001.3,N
1552300215.2,286047004.1,Y
1552300235.0,286047002.7,P
1552300235.9,286047002.7,P
1552300255.8,286047002.8,P
1552300275.6,286047001.1,N
1552300295.4,286046998.3,N
1552300315.3,286046999.6,N
1552300335.1,286046999.6,N
1552300355.8,286046998.9,N
1552300375.7,286047000.1,N
1552300395.5,286047002.2,N
1552300415.4,286047002.4,N
1552300435.2,286047002.7,N
1552300455.0,286047000.9,N
1552300455.9,286047000.9,N
1552300475.8,286047000.3,N
1552300495.6,286046999.8,N
1552300515.4,286047001.5,N
1552300535.3,286047001.9,N
1552300555.1,286047003.7,N
1552300575.9,286047003.4,N
1552300595.7,286047003.0,N
1552300615.5,286047001.8,N
1552300635.4,286047001.4,N
1552300655.2,286047000.1,N
1552300675.0,286047000.1,N
1552300676.0,286047000.1,N
1552300695.8,286047004.4,Y
1552300715.6,286047000.2,P
1552300735.5,286046998.4,P
1552300755.3,286046999.2,N
1552300775.1,286047001.2,N
1552300795.9,286046999.0,N
1552300815.7,286046998.5,N
1552300835.6,286046998.4,N
1552300855.4,286046998.3,N
1552300875.2,286047000.3,N
1552300895.1,286047000.4,N
1552300896.0,286047000.4,N
1552300915.8,286047000.0,N
1552300935.6,286046999.4,N
1552300955.5,286046998.5,N
1552300975.3,286047000.6,N
1552300995.1,286047002.3,N
1552301015.9,286047001.9,N
1552301035.7,286047004.0,Y
1552301055.6,286047004.1,P
1552301075.4,286047002.3,N
1552301095.3,286047001.0,N
1552301115.1,286047001.1,N
1552301116.0,286047001.1,N
1552301135.8,286046998.6,N
1552301155.7,286047000.3,N
1552301175.5,286047002.3,N
1552301195.3,286047002.0,N
1552301215.2,286047002.8,N
1552301235.0,286047002.5,N
1552301235.9,286047002.5,N
1552301255.8,286047002.5,N
1552301275.6,286047004.2,Y
1552301295.4,286047001.8,P
1552301315.3,286047002.4,P
1552301335.1,286047001.6,P
1552301355.9,286047004.3,Y
1552301375.7,286047000.6,P
1552301395.5,286047000.8,N
1552301415.4,286046999.1,N
1552301435.2,286046999.1,N
1552301455.0,286046999.0,N
1552301455.9,286046999.0,N
1552301475.8,286046998.6,N
1552301495.6,286046998.6,N
1552301515.5,286047000.7,N
1552301535.3,286047001.1,N
1552301555.1,286046998.9,N
1552301575.9,286047001.1,N
1552301595.7,286046999.2,N
1552301615.5,286046998.0,N
1552301635.4,286046995.9,Y
1552301655.2,286046993.3,P
1552301675.0,286046993.4,N
1552301676.0,286046993.4,N
1552301695.8,286046996.4,N
1552301715.6,286046995.2,N
1552301735.5,286046997.5,N
1552301755.3,286046996.7,N
1552301775.1,286046997.7,N
1552301795.9,286046997.7,N
1552301815.7,286046997.7,N
1552301835.5,286046997.9,N
1552301855.4,286046997.5,N
1552301875.2,286046996.1,N
1552301895.1,286046994.9,N
1552301896.0,286046994.9,N
1552301915.8,286046997.4,N
1552301935.6,286046995.5,N
1552301955.5,286046995.9,N
1552301975.3,286046993.3,Y
1552301995.1,286046997.1,P
